Date String (YYYY-MM-DD hh:mm:ss) UTC,Instrument flags,Ambient pressure (hPa),Sample flow (lpm),Bypass flow (lpm),Sample temperature (°C),Ambient temperature (°C),ASC tube jacket temperature (°C),LED temperature (°C),Box temperature (°C),Sample RH (%),Span deviation,Mass concentration (μg/m³),Mass concentration (μg/m³),Mass concentration (μg/m³)
DateTimeUTC,F1_M11,P_M11,Q1_M11,Q2_M11,T1_M11,T2_M11,T3_M11,T4_M11,T5_M11,U1_M11,ZSPAN_M11,X0_M11,X2_M11,X1_M11
2023-02-17 10:00:00,,0827.3,5.01,0.00,22.6,21.7,00.0,31.4,24.3,06.1,0000.0,0005.19,0002.48,0001.83
2023-02-17 10:01:00,,0827.3,5.02,0.00,22.6,21.4,00.0,31.4,24.2,06.1,0000.0,0005.23,0002.48,0001.85
2023-02-17 10:02:00,,0827.3,5.01,0.00,22.5,21.0,00.0,31.4,24.2,06.1,0000.0,0005.34,0002.46,0001.85
2023-02-17 10:03:00,,0827.4,5.00,0.00,22.5,20.8,00.0,31.4,24.1,06.2,0000.0,0005.77,0002.51,0001.86
2023-02-17 10:04:00,,0827.4,5.02,0.00,22.5,20.7,00.0,31.4,24.0,06.2,0000.0,0005.90,0002.50,0001.85
2023-02-17 10:05:00,,0827.4,4.97,0.00,22.4,20.6,00.0,31.4,24.0,06.2,0000.0,0005.82,0002.48,0001.85
2023-02-17 10:06:00,,0827.4,4.99,0.00,22.4,20.5,00.0,31.4,24.0,06.2,0000.0,0005.73,0002.46,0001.85
2023-02-17 10:07:00,,0827.4,4.98,0.00,22.4,21.1,00.0,31.3,24.1,06.3,0000.0,0005.72,0002.43,0001.83
2023-02-17 10:08:00,,0827.4,5.00,0.00,22.5,22.3,00.0,31.3,24.4,06.2,0000.0,0004.63,0002.39,0001.81
2023-02-17 10:09:00,,0827.4,5.12,0.00,22.6,23.0,00.0,31.3,24.6,06.2,0000.0,0004.45,0002.38,0001.78
2023-02-17 10:10:00,,0827.4,5.02,0.00,22.7,22.8,00.0,31.3,24.6,06.3,0000.0,0004.54,0002.40,0001.76
2023-02-17 10:11:00,,0827.4,4.98,0.00,22.7,22.3,00.0,31.4,24.5,06.3,0000.0,0004.34,0002.36,0001.75
2023-02-17 10:12:00,,0827.4,4.98,0.00,22.6,21.8,00.0,31.4,24.4,06.2,0000.0,0004.39,0002.39,0001.73
2023-02-17 10:13:00,,0827.4,5.01,0.00,22.6,21.4,00.0,31.4,24.3,06.2,0000.0,0004.36,0002.42,0001.72
2023-02-17 10:14:00,,0827.4,5.00,0.00,22.6,21.1,00.0,31.4,24.2,06.3,0000.0,0004.03,0002.38,0001.71
2023-02-17 10:15:00,,0827.4,5.01,0.00,22.5,20.9,00.0,31.4,24.2,06.2,0000.0,0003.80,0002.36,0001.71
2023-02-17 10:16:00,,0827.4,4.95,0.00,22.5,20.7,00.0,31.4,24.1,06.2,0000.0,0003.69,0002.33,0001.70
2023-02-17 10:17:00,,0827.3,5.03,0.00,22.5,20.6,00.0,31.4,24.1,06.3,0000.0,0003.79,0002.35,0001.69
2023-02-17 10:18:00,,0827.3,4.99,0.00,22.4,20.5,00.0,31.4,24.1,06.4,0000.0,0003.86,0002.36,0001.67
2023-02-17 10:19:00,,0827.4,5.02,0.00,22.5,21.4,00.0,31.3,24.2,06.4,0000.0,0003.89,0002.38,0001.67
2023-02-17 10:20:00,,0827.3,5.08,0.00,22.6,22.6,00.0,31.3,24.5,06.2,0000.0,0003.83,0002.37,0001.69
2023-02-17 10:21:00,,0827.4,4.96,0.00,22.7,23.2,00.0,31.3,24.7,06.2,0000.0,0003.89,0002.41,0001.73
2023-02-17 10:22:00,,0827.3,4.99,0.00,22.7,22.7,00.0,31.4,24.6,06.2,0000.0,0003.80,0002.39,0001.73
2023-02-17 10:23:00,,0827.5,4.98,0.00,22.7,22.2,00.0,31.4,24.5,06.3,0000.0,0003.63,0002.31,0001.72
2023-02-17 10:24:00,,0827.3,5.02,0.00,22.7,21.8,00.0,31.4,24.4,06.3,0000.0,0003.57,0002.27,0001.71
2023-02-17 10:25:00,,0827.2,5.00,0.00,22.6,21.5,00.0,31.4,24.3,06.3,0000.0,0003.72,0002.30,0001.71
2023-02-17 10:26:00,,0827.2,5.01,0.00,22.6,21.3,00.0,31.4,24.3,06.3,0000.0,0004.09,0002.32,0001.70
2023-02-17 10:27:00,,0827.2,4.98,0.00,22.6,21.1,00.0,31.4,24.2,06.2,0000.0,0004.18,0002.34,0001.72
2023-02-17 10:28:00,,0827.2,4.95,0.00,22.5,20.9,00.0,31.4,24.2,06.2,0000.0,0004.08,0002.31,0001.74
2023-02-17 10:29:00,,0827.2,5.01,0.00,22.5,20.8,00.0,31.4,24.1,06.2,0000.0,0004.39,0002.34,0001.78
2023-02-17 10:30:00,,0827.2,5.01,0.00,22.5,20.7,00.0,31.4,24.1,06.2,0000.0,0004.63,0002.39,0001.82
2023-02-17 10:31:00,,0827.2,5.00,0.00,22.4,20.7,00.0,31.4,24.1,06.2,0000.0,0004.71,0002.44,0001.85
2023-02-17 10:32:00,,0827.2,4.97,0.00,22.5,21.7,00.0,31.3,24.3,06.2,0000.0,0004.74,0002.45,0001.85
2023-02-17 10:33:00,,0827.2,4.98,0.00,22.6,22.9,00.0,31.3,24.6,06.2,0000.0,0005.01,0002.47,0001.86
2023-02-17 10:34:00,,0827.2,4.99,0.00,22.7,23.3,00.0,31.3,24.7,06.1,0000.0,0005.75,0002.52,0001.90
2023-02-17 10:35:00,,0827.1,4.99,0.00,22.8,22.7,00.0,31.4,24.6,06.1,0000.0,0005.74,0002.56,0001.94
2023-02-17 10:36:00,,0827.2,5.02,0.00,22.7,22.2,00.0,31.4,24.5,06.1,0000.0,0005.82,0002.61,0001.97
2023-02-17 10:37:00,,0827.1,5.00,0.00,22.7,21.8,00.0,31.5,24.5,06.3,0000.0,0005.44,0002.60,0001.98
2023-02-17 10:38:00,,0827.0,5.00,0.00,22.7,21.4,00.0,31.5,24.4,06.4,0000.0,0005.37,0002.62,0001.96
2023-02-17 10:39:00,,0827.1,5.01,0.00,22.6,21.2,00.0,31.5,24.3,06.4,0000.0,0005.57,0002.66,0001.95
2023-02-17 10:40:00,,0827.1,5.00,0.00,22.6,21.0,00.0,31.5,24.2,06.3,0000.0,0005.36,0002.68,0001.95
2023-02-17 10:41:00,,0827.1,5.00,0.00,22.6,20.8,00.0,31.5,24.2,06.3,0000.0,0005.20,0002.66,0001.95
2023-02-17 10:42:00,,0827.2,5.02,0.00,22.5,20.7,00.0,31.5,24.2,06.3,0000.0,0006.45,0002.66,0001.92
2023-02-17 10:43:00,,0827.2,5.01,0.00,22.5,20.6,00.0,31.4,24.1,06.3,0000.0,0006.44,0002.61,0001.89
2023-02-17 10:44:00,,0827.3,4.99,0.00,22.5,21.4,00.0,31.4,24.3,06.3,0000.0,0006.38,0002.61,0001.89
2023-02-17 10:45:00,,0827.3,4.96,0.00,22.6,22.5,00.0,31.3,24.5,06.3,0000.0,0005.46,0002.56,0001.87
2023-02-17 10:46:00,,0827.3,4.98,0.00,22.7,23.2,00.0,31.4,24.7,06.3,0000.0,0005.34,0002.50,0001.83
2023-02-17 10:47:00,,0827.2,5.00,0.00,22.8,22.8,00.0,31.4,24.6,06.4,0000.0,0005.12,0002.41,0001.80
2023-02-17 10:48:00,,0827.2,5.02,0.00,22.7,22.2,00.0,31.5,24.5,06.4,0000.0,0005.00,0002.36,0001.79
2023-02-17 10:49:00,,0827.2,5.01,0.00,22.7,21.8,00.0,31.5,24.4,06.4,0000.0,0004.97,0002.36,0001.79
2023-02-17 10:50:00,,0827.1,5.00,0.00,22.7,21.4,00.0,31.5,24.4,06.5,0000.0,0004.75,0002.32,0001.78
2023-02-17 10:51:00,,0827.2,4.98,0.00,22.6,21.2,00.0,31.5,24.3,06.5,0000.0,0004.74,0002.30,0001.74
2023-02-17 10:52:00,,0827.2,5.03,0.00,22.6,20.9,00.0,31.5,24.2,06.6,0000.0,0004.58,0002.26,0001.71
2023-02-17 10:53:00,,0827.2,5.01,0.00,22.6,20.8,00.0,31.5,24.2,06.5,0000.0,0003.20,0002.19,0001.69
2023-02-17 10:54:00,,0827.2,5.00,0.00,22.5,20.7,00.0,31.5,24.2,06.6,0000.0,0003.05,0002.16,0001.67
2023-02-17 10:55:00,,0827.2,5.02,0.00,22.5,20.6,00.0,31.4,24.1,06.6,0000.0,0003.08,0002.13,0001.64
2023-02-17 10:56:00,,0827.2,4.95,0.00,22.5,21.0,00.0,31.4,24.2,06.6,0000.0,0003.11,0002.13,0001.61
2023-02-17 10:57:00,,0827.2,4.99,0.00,22.6,22.1,00.0,31.3,24.4,06.6,0000.0,0003.17,0002.16,0001.61
2023-02-17 10:58:00,,0827.3,4.95,0.00,22.7,23.0,00.0,31.3,24.7,06.5,0000.0,0003.20,0002.16,0001.60
2023-02-17 10:59:00,,0827.3,4.97,0.00,22.8,22.8,00.0,31.4,24.7,06.4,0000.0,0003.37,0002.21,0001.61
